W8NES Weather Reports


time (UTC)temp
C
wind
direction
speed
KPH
gust
KPH
rain 1hr
cm
rain 24hr
cm
rain mn
cm
humidity
%
barometer
mb
20260508111603 2 0 0.0 0.0 0.00 0.00 0.00 90 1015.4
20260508110100 2 0 0.0 0.0 0.00 0.00 0.00 90 1015.4
20260508104555 2 0 0.0 0.0 0.00 0.00 0.00 89 1015.2
20260508103102 2 0 0.0 0.0 0.00 0.00 0.00 89 1015.2
20260508101559 2 0 0.0 0.0 0.00 0.00 0.00 89 1015.1
20260508100100 2 0 0.0 0.0 0.00 0.00 0.00 89 1015.0
20260508094619 2 0 0.0 0.0 0.00 0.00 0.00 89 1014.7
20260508093058 2 0 0.0 0.0 0.00 0.00 0.00 89 1014.7
20260508091556 2 0 0.0 0.0 0.00 0.00 0.00 88 1014.6
20260508084558 2 0 0.0 0.0 0.00 0.00 0.00 88 1014.5
20260508083109 2 0 0.0 0.0 0.00 0.00 0.00 88 1014.6
20260508081603 3 0 0.0 0.0 0.00 0.00 0.00 88 1014.6
20260508080056 3 0 0.0 3.2 0.00 0.00 0.00 87 1014.5
20260508074558 3 0 0.0 0.0 0.00 0.00 0.00 87 1014.6
20260508073055 3 0 0.0 0.0 0.00 0.00 0.00 87 1014.6
20260508071557 3 0 0.0 0.0 0.00 0.00 0.00 87 1014.5
20260508070057 3 0 0.0 0.0 0.00 0.00 0.00 87 1014.4
20260508064556 3 0 0.0 1.6 0.00 0.00 0.00 87 1014.4
20260508063055 4 0 0.0 0.0 0.00 0.00 0.00 86 1014.6
20260508061556 4 0 0.0 0.0 0.00 0.00 0.00 86 1014.7
20260508060055 4 0 0.0 0.0 0.00 0.00 0.00 86 1014.8
20260508054554 5 0 0.0 1.6 0.00 0.00 0.00 85 1014.6
20260508053057 5 0 0.0 0.0 0.00 0.00 0.00 85 1014.7
20260508051555 5 0 0.0 1.6 0.00 0.00 0.00 84 1014.7
20260508050057 5 0 0.0 1.6 0.00 0.00 0.00 84 1014.7
20260508044555 5 0 0.0 1.6 0.00 0.00 0.00 83 1014.9
20260508043107 6 0 0.0 3.2 0.00 0.00 0.00 82 1014.7
20260508041554 6 0 0.0 3.2 0.00 0.00 0.00 81 1014.7
20260508040057 6 0 0.0 1.6 0.00 0.00 0.00 80 1014.7
20260508034554 6 0 0.0 0.0 0.00 0.00 0.00 79 1014.7
20260508033057 6 0 0.0 0.0 0.00 0.00 0.00 78 1014.6
20260508031555 7 0 0.0 3.2 0.00 0.00 0.00 76 1014.5
20260508030054 7 244 0.0 3.2 0.00 0.00 0.00 74 1014.4
20260508024558 7 248 0.0 4.8 0.00 0.00 0.00 73 1014.1
20260508023058 8 246 1.6 3.2 0.00 0.00 0.00 69 1013.9
20260508021555 8 0 0.0 3.2 0.00 0.00 0.00 67 1013.8
20260508020058 9 254 0.0 1.6 0.00 0.00 0.00 64 1013.5
20260508014554 10 0 0.0 3.2 0.00 0.00 0.00 63 1013.4
20260508013057 10 0 0.0 0.0 0.00 0.00 0.00 53 1013.2
20260508011557 11 0 0.0 0.0 0.00 0.00 0.00 49 1012.9
20260508010059 12 0 0.0 3.2 0.00 0.00 0.00 48 1012.9
20260508004609 13 0 0.0 3.2 0.00 0.15 0.00 46 1012.8
20260508003057 13 0 0.0 6.4 0.00 0.15 0.00 44 1012.7
20260508001558 14 80 0.0 4.8 0.00 0.15 0.00 42 1012.7
20260508000057 15 0 0.0 6.4 0.00 0.15 0.00 42 1012.3
20260507234559 15 82 0.0 6.4 0.00 0.20 0.00 43 1012.0
20260507233056 15 149 1.6 12.9 0.00 0.20 0.00 39 1011.9
20260507231558 15 125 1.6 14.5 0.00 0.20 0.00 40 1011.8
20260507230106 16 75 1.6 14.5 0.00 0.20 0.00 40 1011.8
20260507224602 17 109 1.6 12.9 0.00 0.23 0.00 41 1011.9
20260507223101 15 190 1.6 12.9 0.00 0.23 0.00 45 1011.7
20260507221558 16 0 0.0 12.9 0.00 0.23 0.00 41 1011.6
20260507220058 17 86 1.6 9.7 0.00 0.23 0.00 44 1011.4
20260507214618 17 90 3.2 16.1 0.00 0.25 0.00 43 1011.3
20260507213108 17 0 1.6 9.7 0.00 0.25 0.00 41 1011.2
20260507211627 16 90 1.6 8.0 0.00 0.25 0.00 46 1011.1
20260507210100 17 0 1.6 9.7 0.00 0.25 0.00 41 1011.0
20260507204613 16 111 0.0 11.3 0.00 0.28 0.00 44 1011.0
20260507203111 17 67 4.8 12.9 0.00 0.28 0.00 41 1010.7
20260507201613 17 144 1.6 11.3 0.00 0.28 0.00 43 1011.0
20260507200109 16 132 1.6 11.3 0.00 0.28 0.00 44 1011.0
20260507194635 17 153 3.2 9.7 0.00 0.36 0.00 45 1011.2
20260507193101 16 286 4.8 11.3 0.00 0.36 0.00 46 1011.1
20260507191557 17 91 3.2 12.9 0.00 0.36 0.00 46 1011.5
20260507184606 16 105 0.0 11.3 0.00 0.38 0.00 55 1011.8
20260507183055 16 103 3.2 11.3 0.00 0.38 0.00 51 1011.7
20260507181558 16 242 1.6 11.3 0.00 0.38 0.00 51 1011.8
20260507180057 15 103 0.0 16.1 0.00 0.38 0.00 55 1011.8
20260507174558 16 0 4.8 16.1 0.00 0.43 0.00 51 1011.9
20260507173057 15 80 3.2 12.9 0.00 0.43 0.00 54 1012.0
20260507171556 16 0 4.8 12.9 0.00 0.43 0.00 57 1012.0
20260507170056 14 0 0.0 9.7 0.00 0.43 0.00 60 1012.2
20260507164606 15 95 1.6 11.3 0.00 0.48 0.00 62 1012.4
20260507163058 15 352 1.6 9.7 0.00 0.48 0.00 65 1012.5
20260507161558 14 0 0.0 6.4 0.00 0.48 0.00 67 1012.7
20260507160058 14 0 0.0 4.8 0.00 0.48 0.00 69 1012.9
20260507154559 13 38 1.6 11.3 0.00 0.51 0.00 65 1012.8
20260507153057 14 0 0.0 6.4 0.00 0.51 0.00 66 1012.8
20260507151558 13 258 0.0 6.4 0.00 0.51 0.00 70 1012.9
20260507150059 12 0 0.0 6.4 0.00 0.51 0.00 67 1013.0
20260507144603 12 0 0.0 3.2 0.00 0.51 0.00 70 1013.1
20260507143110 12 0 0.0 6.4 0.00 0.51 0.00 68 1013.0
20260507141557 12 0 0.0 3.2 0.00 0.51 0.00 78 1013.2
20260507140059 11 0 0.0 1.6 0.00 0.51 0.00 78 1013.4
20260507134600 11 0 0.0 4.8 0.00 0.51 0.00 83 1013.6
20260507133106 10 0 0.0 1.6 0.00 0.51 0.00 91 1013.7
20260507131612 10 0 0.0 3.2 0.00 0.51 0.00 92 1013.6
20260507130059 10 0 0.0 3.2 0.00 0.51 0.00 92 1013.7
20260507124600 10 0 0.0 3.2 0.00 0.51 0.00 92 1013.6
20260507123059 10 0 0.0 1.6 0.00 0.51 0.00 92 1013.5
20260507121555 10 0 0.0 1.6 0.00 0.51 0.00 92 1013.6
20260507120058 10 0 0.0 0.0 0.00 0.51 0.00 92 1013.7
20260507114557 10 0 0.0 0.0 0.00 0.58 0.00 92 1013.6
20260507113100 9 0 0.0 0.0 0.00 0.58 0.00 92 1013.6